User: anonymous   Login
Location: Caltech
(34.1382°N, 118.1253°W)
Time: 04:56:58
(UTC-08:00)
Language:

Cosmos 1606 - Orbit

View from above orbital plane
View from above orbital plane
View from above satellite
View from above satellite

Ground track
Ground track

The orbit data is extracted from the following two-line orbital elements,

1 15369U 84111A   17019.15833854  .00000915  00000-0  46631-4 0  9993
2 15369  82.5282 269.1282 0019425  57.2093 303.1007 15.15327984757895
Epoch (UTC): 19 January 2017 03:48:00
Eccentricity: 0.0019425
inclination: 82.5282°
perigee height: 506 km
apogee height: 533 km
right ascension of ascending node: 269.1282°
argument of perigee: 57.2093°
revolutions per day: 15.15327984
mean anomaly at epoch: 303.1007°
orbit number at epoch: 75789

The dashed part of the orbit path shows where the satellite is in the earth's shadow,  

DLR